Powrót do katalogu

KNACKSAT

AktywnyNaukaSSO
NORAD 43806·PAYLOAD·🇹🇭 Thailand
Ta nazwa satelity nie została jeszcze potwierdzona przez oficjalne źródła.

Wystrzelony Dec 3, 2018 z Vandenberg Space Force Base

Loading…

Następne Przeloty (najbliższe 24 godziny)

TLE

ŚwieżeSource: Space-Track

Epoka: Sep 14, 2026, 01:36 UTC

1 43806U 18099BA  26257.06709200  .00004421  00000-0  22970-3 0  9998
2 43806  97.3895 302.2334 0007771  31.8336 328.3366 15.16571991425903

Śledź KNACKSAT w czasie rzeczywistym z AllMySat

Download on the App Store